cover

 

Get it on iTunes StoreListen on Apple Music

Flower Power

#Trackname / Key / BPM / Publish dateArtists, Remixers / Label
1 126 bpm, 7B / F major, 2018-09-07, Techno,  0  24
2 100 bpm, 7A / D minor, 2018-09-07, Electronica,  0  24
3 124 bpm, 11B / A major, 2018-09-07, Tech House,  1  24
4 126 bpm, 8B / C major, 2018-09-07, Techno,  0  24
5 124 bpm, 7B / F major, 2018-09-07, Tech House,  0  24
6 126 bpm, 2B / F# major, 2018-09-07, Progressive House,  0  24
7 123 bpm, 12A / Db minor, 2018-09-07, Tech House,  0  24
8 124 bpm, 6A / G minor, 2018-09-07, Tech House,  0  24
9 125 bpm, 7A / D minor, 2018-09-07, Techno,  0  24
10 128 bpm, 9A / E minor, 2018-09-07, Progressive House,  0  24
11 125 bpm, 5A / C minor, 2018-09-07, Tech House,  0  24
12 122 bpm, 3A / Bb minor, 2018-09-07, Deep House,  0  24
13 123 bpm, 2A / Eb minor, 2018-09-07, Progressive House,  0  24
14 124 bpm, 7A / D minor, 2018-09-07, Progressive House,  0  24
15 127 bpm, 8A / A minor, 2018-09-07, Techno,  0  24
16 125 bpm, 8A / A minor, 2018-09-07, Techno,  0  24
17 123 bpm, 11B / A major, 2018-09-07, Tech House,  0  24
18 125 bpm, 7A / D minor, 2018-09-07, Progressive House,  0  24
19 122 bpm, 3A / Bb minor, 2018-09-07, Deep House,  0  24
20 124 bpm, 7A / D minor, 2018-09-07, House,  0  24
21 125 bpm, 7A / D minor, 2018-09-07, Tech House,  0  24
22 124 bpm, 6B / Bb major, 2018-09-07, Tech House,  0  24
23 126 bpm, 6A / G minor, 2018-09-07, Techno,  0  24
24 119 bpm, 8A / A minor, 2018-09-07, Deep House,  0  24
25 125 bpm, 8A / A minor, 2018-08-31, Tech House,  0  25
26 122 bpm, 6A / G minor, 2018-08-31, Tech House,  0  25
27 126 bpm, 7A / D minor, 2018-08-31, Tech House,  0  25
28 126 bpm, 8A / A minor, 2018-08-31, Tech House,  0  25
29 126 bpm, 8A / A minor, 2018-08-31, Tech House,  0  25
30 125 bpm, 7B / F major, 2018-08-31, Tech House,  0  25
31 125 bpm, 12B / E major, 2018-08-31, Tech House,  0  25
32 126 bpm, 3A / Bb minor, 2018-08-31, Tech House,  0  25
33 127 bpm, 11B / A major, 2018-08-31, Tech House,  0  25
34 123 bpm, 8A / A minor, 2018-08-31, Tech House,  0  25
35 124 bpm, 12B / E major, 2018-08-31, Tech House,  0  25
36 126 bpm, 9A / E minor, 2018-08-31, Tech House,  0  25
37 124 bpm, 6A / G minor, 2018-08-31, Tech House,  0  25
38 125 bpm, 8A / A minor, 2018-08-31, Tech House,  0  25
39 123 bpm, 2A / Eb minor, 2018-08-31, Tech House,  0  25
40 124 bpm, 8A / A minor, 2018-08-31, Tech House,  0  25
41 126 bpm, 12B / E major, 2018-08-31, Tech House,  0  25
42 123 bpm, 8A / A minor, 2018-08-31, Tech House,  0  25
43 123 bpm, 6A / G minor, 2018-08-31, Tech House,  0  25
44 123 bpm, 5A / C minor, 2018-08-31, Tech House,  0  25
45 122 bpm, 9A / E minor, 2018-08-31, Tech House,  0  25
46 123 bpm, 11A / F# minor, 2018-08-31, Tech House,  0  25
47 124 bpm, 12A / Db minor, 2018-08-31, Tech House,  0  25
48 126 bpm, 2A / Eb minor, 2018-08-31, Tech House,  0  25
49 124 bpm, 3A / Bb minor, 2018-08-31, Tech House,  0  25
50 122 bpm, 10B / D major, 2018-08-24, Tech House,  0  22
51 124 bpm, 7B / F major, 2018-08-24, House,  0  22
52 126 bpm, 7A / D minor, 2018-08-24, Tech House,  0  22
53 126 bpm, 8A / A minor, 2018-08-24, Tech House,  0  22
54 124 bpm, 11B / A major, 2018-08-24, Tech House,  0  22
55 124 bpm, 7B / F major, 2018-08-24, Tech House,  0  22
56 123 bpm, 2A / Eb minor, 2018-08-24, Tech House,  0  22
57 124 bpm, 12B / E major, 2018-08-24, Tech House,  0  22
58 126 bpm, 9A / E minor, 2018-08-24, Tech House,  0  22
59 120 bpm, 10B / D major, 2018-08-24, Tech House,  0  22
60 125 bpm, 11A / F# minor, 2018-08-24, House,  0  22
61 124 bpm, 8A / A minor, 2018-08-24, Tech House,  0  22
62 123 bpm, 7A / D minor, 2018-08-24, Tech House,  0  22
63 123 bpm, 7A / D minor, 2018-08-24, Tech House,  0  22
64 120 bpm, 7A / D minor, 2018-08-24, Tech House,  0  22
65 114 bpm, 8A / A minor, 2018-08-24, Tech House,  0  22
66 125 bpm, 10A / B minor, 2018-08-24, Tech House,  0  22
67 123 bpm, 10A / B minor, 2018-08-24, Tech House,  0  22
68 123 bpm, 7A / D minor, 2018-08-24, Tech House,  0  22
69 124 bpm, 3A / Bb minor, 2018-08-24, Tech House,  0  22
70 126 bpm, 8A / A minor, 2018-08-24, Tech House,  0  22
71 124 bpm, 7A / D minor, 2018-08-24, Tech House,  0  22
72 129 bpm, 4B / Ab major, 2018-08-13, Techno,  0  21
73 125 bpm, 6A / G minor, 2018-08-13, Electro House,  0  21
74 115 bpm, 11B / A major, 2018-08-13, Deep House,  0  21
75 123 bpm, 8B / C major, 2018-08-13, Tech House,  0  21
76 124 bpm, 8A / A minor, 2018-08-13, Progressive House,  0  21
77 125 bpm, 8A / A minor, 2018-08-13, Progressive House,  0  21
78 120 bpm, 7A / D minor, 2018-08-13, Progressive House,  0  21
79 125 bpm, 6A / G minor, 2018-08-13, Progressive House,  0  21
80 125 bpm, 8A / A minor, 2018-08-13, Melodic House & Techno,  0  21
81 122 bpm, 7A / D minor, 2018-08-13, Progressive House,  0  21
82 122 bpm, 11A / F# minor, 2018-08-13, Techno,  0  21
83 121 bpm, 9A / E minor, 2018-08-13, Techno,  0  21
84 122 bpm, 10A / B minor, 2018-08-13, Progressive House,  0  21
85 125 bpm, 6A / G minor, 2018-08-13, Progressive House,  0  21
86 120 bpm, 7B / F major, 2018-08-13, Progressive House,  0  21
87 120 bpm, 8B / C major, 2018-08-13, Progressive House,  0  21
88 126 bpm, 6A / G minor, 2018-08-13, Progressive House,  0  21
89 122 bpm, 7B / F major, 2018-08-13, Techno,  0  21
90 125 bpm, 1B / B major, 2018-08-13, Progressive House,  0  21
91 125 bpm, 10B / D major, 2018-08-13, Progressive House,  1  21
92 124 bpm, 7B / F major, 2018-08-13, Tech House,  0  21
93 123 bpm, 8A / A minor, 2018-08-10, Tech House,  3  22
94 125 bpm, 6B / Bb major, 2018-08-10, Minimal,  0  22
95 125 bpm, 8A / A minor, 2018-08-10, Minimal,  1  22
96 125 bpm, 5A / C minor, 2018-08-10, Techno,  0  22
97 124 bpm, 8A / A minor, 2018-08-10, Minimal,  0  22
98 126 bpm, 6A / G minor, 2018-08-10, Techno,  0  22
99 123 bpm, 1A / Ab minor, 2018-08-10, Minimal,  0  22
100 124 bpm, 8A / A minor, 2018-08-10, Minimal,  0  22
×

Sign in

Sign in to access your personalized pages, follow artists and labels you love, and create playlists fromyour favorite tracks.

Please wait...